STARLINK-1271, 45217

Orbit data source: Space-Track

STARLINK-1271, 45217 is a payload satellite owned by SpaceX/Seattle (US) in LEO that was launched on Mon, 17 Feb 2020 UTC via an FALCON 9 launch vehicle from the Air Force Eastern Test Range (AFETR). Payload-class satellites include a variety of spacecraft equipped with specific instruments for various scientific and technological missions. These include communications satellites like Starlink; space stations such as the ISS; scientific satellites like the Hubble; Earth observation satellites from companies like Planet Labs, Umbra, and HawkEye 360; GPS; miniature CubeSats for education and research; and military/defense satellites.

Loading next visibility...
Identifier
45217, 2020-012AR
Orbit
LEO
Country
Flag of USUS
Related business
Manufacturer
SpaceX/Seattle
Mission
Partially operational Commercial Communications
Bus & Motor
STARLINK, Unknown motor
Mass
260 kg wet, ~248 kg dry
Launch date (UTC)
2020-02-17 (7 years ago)
Launch vehicle
FALCON 9
Launch site
Air Force Eastern Test Range (AFETR)
Object type
Payload
Rocket body
Debris
Shape & HBR
Box + 1 Pan, 10.1 m
Radar Cross Section
13.562 m², Large (>1 m²)

Expand to show TLE details & history
Last TLE update: 2 days ago

TLE from 2 days ago
0 STARLINK-1271
1 45217U 20012AR  26252.00971038  .00043130  00000-0  96779-3 0  9991
2 45217  53.1513 245.5402 0002056  71.3190 288.8039 15.42988350363325
Epoch: 2026-09-09T00:13Z
TLE epoch observation values (Epoch: 2026-09-09T00:13:58.976Z)
Latitude
-0.00006°
Longitude
-106.0235°
Altitude
437.748 km
Speed
7.651 km/s
True Right ascension
16h 22m 09s
True Declination
0° 00' 00"
Sunlit
Object was in daylight at epoch
Visualization orbit readout
Latitude
Unknown
Longitude
Unknown
Altitude
Unknown
Speed
Unknown
Apparent Right ascension
Unknown
Apparent Declination
Unknown
Sunlit
N/A
Visualization observer readout
Local Sidereal Time
21:27:11
Azimuth
Unknown
Elevation
Unknown
Doppler factor
Unknown
Orbital elements
Apogee altitude
438.956 km
Perigee altitude
436.153 km
Semi-major axis
6,815.692 km
Eccentricity
0.00021
Inclination
53.1513°
RAAN
245.5402°
Arg. of periapsis
71.319°
True anomaly
288.7816°
Mean anomaly
288.8039°
Eccentric anomaly
288.79275°
Mean motion
3.85725 °/min
Orbital period
93.33 mins
BSTAR
0.00096779
Loading maneuver chart data...
Computing Atmospheric mass density...

Documentation

Showing up to 5 results
|